Location: Aalen
(48.8330°N, 10.1000°E)
Time: 00:58:25
(UTC+02:00)

Transit 4A - Pass Details

Date: 04 August 2021
Orbit: 870 x 974 km, 66.8° (Epoch: 26 September)

Event Time Altitude Azimuth Distance (km) Brightness Sun altitude
Rises 23:22:06 0° 176° (S) 3,486 - -18.7°
Reaches altitude 10° 23:24:58 10° 164° (SSE) 2,538 - -18.9°
Exits shadow 23:29:36 26° 112° (ESE) 1,648 8.8 -19.3°
Maximum altitude 23:29:43 26° 109° (ESE) 1,647 8.8 -19.3°
Drops below altitude 10° 23:34:27 10° 55° (NE) 2,526 10.2 -19.7°
Sets 23:37:17 0° 43° (NE) 3,467 11.1 -19.9°
